LUCH 5A

Last updated on Jan. 18, 2020, 4:38 a.m. UTC

1 37951U 11074B   20017.83668751 -.00000052  00000-0  00000+0 0  9999
2 37951   2.9276 120.0385 0002257 181.8955 282.8648  1.00269821 29700
UTC
Height (km)
Latitude
Longitude
Inclination
Orbital Period
UTC large
Height (km)
Speed (km/s)
/
Latitude / Longitude
Inclination (degrees)
Orbital Period (minutes)
Azimuth
Elevation
Range (km)
Doppler Factor
iOS Compass Heading
iOS Angle

Next 30 passes for location: Hong Kong

Rise time Rise Azimuth (degrees) Set time Set Azimuth (degrees) Duration Max altitude (degrees)

No matching passes for this satellites